Weather History for Crestview, FL

Change the Weather History Date:

Friday, March 14, 2014

  Actual Average Record
Temperature  
Mean Temperature 48 °F -  
Max Temperature 65 °F - - ()
Min Temperature 33 °F - - ()
Degree Days  
Heating Degree Days 16    
Moisture  
Dew Point 36 °F    
Average Humidity 64    
Maximum Humidity 99    
Minimum Humidity 25    
Precipitation  
Precipitation 0.00 in - - ()
Sea Level Pressure  
Sea Level Pressure 30.24 in    
Wind  
Wind Speed 5 mph (SE)    
Max Wind Speed 17 mph    
Max Gust Speed 20 mph    
Visibility 10 miles    
Events      
T = Trace of Precipitation, MM = Missing Value Source: NWS Daily Summary

Daily Weather History Graph

Daily Weather History Graph

Search for Another Location

Airport:

Trip Planner

Search our weather history database for the weather conditions in past years. The results will help you decide how hot, cold, wet, or windy it might be!

Date:

Astronomy

Mar. 14, 2014 Rise Set
Actual Time 6:57 AM CDT 6:53 PM CDT
Civil Twilight 6:33 AM CDT 7:17 PM CDT
Nautical Twilight 6:05 AM CDT 7:45 PM CDT
Astronomical Twilight 5:37 AM CDT 8:13 PM CDT
Moon 5:19 PM CDT (3/14) 5:30 AM CDT (3/14)
Length of Visible Light 12h 44m
Length of Day
11h 56m
Waxing Gibbous, 96% of the Moon is Illuminated
Mar 14
Waxing Gibbous
Mar 16
Full
Mar 23
Last Quarter
Mar 30
New
Apr 7
First Quarter

Hourly Weather History & Observations

Time (CDT) Temp. Windchill Dew Point Humidity Pressure Visibility Wind Dir Wind Speed Gust Speed Precip Events Conditions
12:58 AM 36.7 °F - 34.2 °F 91% 30.25 in 10.0 mi Calm Calm - N/A   Clear
1:58 AM 36.7 °F - 33.8 °F 89% 30.25 in 10.0 mi East 1.2 mph - N/A   Clear
2:58 AM 36.0 °F 33.3 °F 32.9 °F 89% 30.23 in 10.0 mi ENE 3.5 mph - N/A   Clear
3:58 AM 37.0 °F - 32.0 °F 82% 30.23 in 10.0 mi ENE 2.3 mph - N/A   Clear
4:58 AM 34.9 °F 32.0 °F 32.0 °F 89% 30.24 in 10.0 mi East 3.5 mph - N/A   Clear
5:58 AM 33.4 °F - 30.9 °F 90% 30.26 in 10.0 mi East 2.3 mph - N/A   Clear
6:58 AM 36.1 °F 33.5 °F 28.4 °F 73% 30.25 in 10.0 mi ENE 3.5 mph - N/A   Clear
7:58 AM 44.1 °F - 33.4 °F 66% 30.27 in 10.0 mi ENE 2.3 mph - N/A   Clear
8:55 AM 52.7 °F - 29.7 °F 41% 30.31 in 10.0 mi Variable 3.5 mph - N/A   Clear
9:55 AM 59.2 °F - 24.4 °F 26% 30.32 in 10.0 mi ESE 9.2 mph - N/A   Clear
10:55 AM 62.1 °F - 26.2 °F 26% 30.32 in 10.0 mi SSE 12.7 mph - N/A   Clear
11:55 AM 64.2 °F - 27.5 °F 25% 30.29 in 10.0 mi South 15.0 mph - N/A   Clear
12:55 PM 64.8 °F - 29.7 °F 27% 30.27 in 10.0 mi South 13.8 mph 19.6 mph N/A   Clear
1:55 PM 64.6 °F - 37.8 °F 37% 30.24 in 10.0 mi South 11.5 mph - N/A   Clear
2:55 PM 64.4 °F - 41.4 °F 43% 30.22 in 10.0 mi South 11.5 mph 19.6 mph N/A   Clear
3:55 PM 64.4 °F - 41.5 °F 43% 30.20 in 10.0 mi SSE 12.7 mph 19.6 mph N/A   Clear
4:57 PM 63.1 °F - 42.4 °F 47% 30.20 in 10.0 mi South 17.3 mph - N/A   Partly Cloudy
5:55 PM 61.3 °F - 43.2 °F 51% 30.20 in 10.0 mi South 11.5 mph - N/A   Scattered Clouds
6:55 PM 57.6 °F - 44.4 °F 62% 30.19 in 10.0 mi South 6.9 mph - N/A   Scattered Clouds
7:55 PM 52.5 °F - 44.6 °F 74% 30.20 in 10.0 mi SSE 2.3 mph - N/A   Partly Cloudy
8:55 PM 50.4 °F - 44.6 °F 81% 30.20 in 10.0 mi East 1.2 mph - N/A   Partly Cloudy
9:55 PM 46.8 °F - 44.2 °F 91% 30.19 in 10.0 mi SE 1.2 mph - N/A   Clear
10:55 PM 46.0 °F - 44.4 °F 94% 30.19 in 10.0 mi Calm Calm - N/A   Partly Cloudy
11:55 PM 43.9 °F - 43.7 °F 99% 30.17 in 10.0 mi Calm Calm - N/A   Partly Cloudy